Weather History for KDYS - November, 2012

Change the Weather History Date:

Wednesday, November 14, 2012

  Actual Average Record
Temperature  
Mean Temperature 44 °F -  
Max Temperature 63 °F 64 °F 84 °F (2006)
Min Temperature 26 °F 45 °F 26 °F (2000)
Degree Days  
Heating Degree Days 20    
Moisture  
Dew Point 21 °F    
Average Humidity 45    
Maximum Humidity 74    
Minimum Humidity 18    
Precipitation  
Precipitation 0.00 in - - ()
Sea Level Pressure  
Sea Level Pressure 30.32 in    
Wind  
Wind Speed 3 mph (South)    
Max Wind Speed 10 mph    
Max Gust Speed -    
Visibility 9 miles    
Events      
Averages and records for this station are not official NWS values.
T = Trace of Precipitation, MM = Missing Value Source: NWS Daily Summary

Daily Weather History Graph

Daily Weather History Graph

Search for Another Location

Airport or City:

Trip Planner

Search our weather history database for the weather conditions in past years. The results will help you decide how hot, cold, wet, or windy it might be!

Date:

Astronomy

Nov. 14, 2012 Rise Set
Actual Time 7:08 AM CST 5:39 PM CST
Civil Twilight 6:42 AM CST 6:05 PM CST
Nautical Twilight 6:12 AM CST 6:34 PM CST
Astronomical Twilight 5:43 AM CST 7:03 PM CST
Moon 7:56 AM CST (11/14) 6:32 PM CST (11/14)
Length of Visible Light 11h 22m
Length of Day
10h 30m
New Moon, 1% of the Moon is Illuminated
Nov 14
New Moon
Nov 20
First Quarter
Nov 28
Full
Dec 6
Last Quarter
Dec 13
New

Hourly Weather History & Observations

Time (CST) Temp. Windchill Dew Point Humidity Pressure Visibility Wind Dir Wind Speed Gust Speed Precip Events Conditions
12:55 AM 30.7 °F - 18.0 °F 59% 30.35 in 10.0 mi Calm Calm - N/A   Clear
1:55 AM 33.4 °F 30.4 °F 17.6 °F 52% 30.35 in 10.0 mi South 3.5 mph - N/A   Clear
2:55 AM 31.3 °F 27.9 °F 18.1 °F 58% 30.35 in 10.0 mi SSW 3.5 mph - N/A   Clear
3:55 AM 33.1 °F 30.0 °F 19.0 °F 56% 30.34 in 10.0 mi SSW 3.5 mph - N/A   Clear
4:55 AM 32.7 °F - 19.0 °F 57% 30.34 in 10.0 mi Calm Calm - N/A   Clear
5:55 AM 31.8 °F - 20.8 °F 64% 30.35 in 10.0 mi Calm Calm - N/A   Clear
6:38 AM 28.4 °F - 19.4 °F 69% 30.37 in 2.5 mi Calm Calm - N/A   Haze
6:45 AM 26.6 °F - 19.4 °F 74% 30.38 in 3.0 mi Calm Calm - N/A   Haze
6:55 AM 27.0 °F - 16.9 °F 66% 30.38 in 8.0 mi Calm Calm - N/A   Clear
7:55 AM 32.5 °F - 20.1 °F 60% 30.39 in 10.0 mi Calm Calm - N/A   Clear
8:55 AM 45.1 °F - 21.2 °F 39% 30.40 in 10.0 mi Calm Calm - N/A   Clear
9:55 AM 52.7 °F - 22.1 °F 30% 30.40 in 10.0 mi South 6.9 mph - N/A   Clear
10:55 AM 57.7 °F - 21.9 °F 25% 30.39 in 10.0 mi SSE 5.8 mph - N/A   Clear
11:55 AM 59.5 °F - 19.4 °F 21% 30.35 in 10.0 mi SE 5.8 mph - N/A   Clear
12:55 PM 60.8 °F - 20.5 °F 21% 30.32 in 10.0 mi South 5.8 mph - N/A   Clear
1:55 PM 62.4 °F - 17.4 °F 18% 30.29 in 10.0 mi SSE 10.4 mph - N/A   Clear
2:55 PM 63.3 °F - 20.3 °F 19% 30.27 in 10.0 mi South 8.1 mph - N/A   Clear
3:55 PM 62.6 °F - 21.4 °F 21% 30.25 in 10.0 mi South 9.2 mph - N/A   Clear
4:55 PM 61.0 °F - 23.2 °F 24% 30.25 in 10.0 mi SSE 5.8 mph - N/A   Clear
5:55 PM 52.0 °F - 23.5 °F 33% 30.26 in 10.0 mi South 6.9 mph - N/A   Clear
6:55 PM 46.4 °F 44.3 °F 20.8 °F 36% 30.27 in 10.0 mi SSW 4.6 mph - N/A   Clear
7:55 PM 40.1 °F 36.1 °F 25.9 °F 57% 30.27 in 10.0 mi South 5.8 mph - N/A   Clear
8:55 PM 41.2 °F - 24.3 °F 51% 30.25 in 10.0 mi Calm Calm - N/A   Clear
9:55 PM 39.0 °F 34.8 °F 27.1 °F 62% 30.24 in 10.0 mi South 5.8 mph - N/A   Clear
10:55 PM 40.6 °F 37.5 °F 25.3 °F 54% 30.22 in 10.0 mi South 4.6 mph - N/A   Clear
11:55 PM 42.3 °F 36.8 °F 27.3 °F 56% 30.22 in 10.0 mi South 9.2 mph - N/A   Clear